Unsubscribe Automatically:

[TLELIST] 0 HST 1 20580U 90037B 26255.93577969 .00005307 00000-0 16138-3 0 9996 2 20580 28.4731 200.4311 0001822 46.6900 313.3848 15.31629360802030 0 ISS (ZARYA) 1 25544U 98067A 26256.17555434 .00004898 00000-0 96695-4 0 9993 2 25544 51.6307 224.6171 0004917 134.6730 225.4659 15.49096932585393 0 CXO 1 25867U 99040B 26259.28972687 .00000789 00000-0 00000-0 0 9997 2 25867 57.4112 114.2820 7693037 309.4077 0.3538 0.37803005 17668